This is the latest recevied weather packets stored in our database for station/object KN4MGS. If no packets are shown the sender has not sent any weather packets the latest 10 day(s).
| Time | Temp. | Humidity | Pressure | Rain* | Wind** | Luminosity | Snow |
|---|---|---|---|---|---|---|---|
| 1777465766 | 16.11° C | 99% | 1017.6 hPa | 0 mm | - | 26 W/m² | - |
| 1777465462 | 16.11° C | 99% | 1017.4 hPa | 0 mm | - | 32 W/m² | - |
| 1777465160 | 16.11° C | 99% | 1017.3 hPa | 0 mm | - | 30 W/m² | - |
| 1777464856 | 16.11° C | 99% | 1017.4 hPa | 0 mm | - | 28 W/m² | - |
| 1777464551 | 16.11° C | 99% | 1017 hPa | 0 mm | - | 28 W/m² | - |
| 1777464248 | 16.11° C | 99% | 1017.3 hPa | 0 mm | - | 25 W/m² | - |
| 1777463943 | 16.11° C | 99% | 1017.2 hPa | 0 mm | - | 35 W/m² | - |
| 1777463638 | 16.11° C | 99% | 1016.7 hPa | 0 mm | - | 32 W/m² | - |
| 1777463333 | 16.11° C | 99% | 1017.1 hPa | 0 mm | - | 35 W/m² | - |
| 1777463030 | 16.11° C | 99% | 1017 hPa | 0 mm | - | 34 W/m² | - |
| 1777462725 | 16.11° C | 99% | 1017.3 hPa | 0 mm | - | 32 W/m² | - |
| 1777462420 | 16.11° C | 99% | 1017.1 hPa | 0 mm | - | 24 W/m² | - |
| 1777462118 | 16.11° C | 99% | 1017.2 hPa | 0 mm | - | 19 W/m² | - |
| 1777461814 | 15.56° C | 99% | 1017.1 hPa | 0 mm | - | 17 W/m² | - |
| 1777461510 | 15.56° C | 99% | 1017.4 hPa | 0 mm | - | 10 W/m² | - |
| 1777461206 | 15.56° C | 99% | 1017.3 hPa | 0 mm | - | 7 W/m² | - |
| 1777460902 | 15.56° C | 99% | 1017.6 hPa | 0 mm | - | 4 W/m² | - |
| 1777460597 | 15.56° C | 99% | 1017.6 hPa | 0 mm | - | 4 W/m² | - |
| 1777460294 | 15.56° C | 99% | 1017.9 hPa | 0 mm | - | 3 W/m² | - |
| 1777459991 | 15.56° C | 99% | 1018.1 hPa | 0 mm | - | 2 W/m² | - |
| 1777459687 | 15.56° C | 99% | 1018 hPa | 0 mm | - | 0 W/m² | - |
| 1777459384 | 15.56° C | 99% | 1018.1 hPa | 0 mm | - | 0 W/m² | - |
| 1777459082 | 15.56° C | 99% | 1018.2 hPa | 0 mm | - | 0 W/m² | - |
| 1777458779 | 15.56° C | 99% | 1018.1 hPa | 0 mm | - | 0 W/m² | - |
| 1777458475 | 15.56° C | 99% | 1018.1 hPa | 0 mm | - | 0 W/m² | - |
* Rain latest hour (hover to see other rain measurements)
** Current wind speed in m/s (hover to see current wind gust speed)